This is the latest recevied weather packets stored in our database for station/object KC3ULW-13. If no packets are shown the sender has not sent any weather packets the latest 10 day(s).
| Time | Temp. | Humidity | Pressure | Rain* | Wind** | Luminosity | Snow |
|---|---|---|---|---|---|---|---|
| 1777632614 | 2.22° C | 93% | 1016.2 hPa | 0 mm | - | 18 W/m² | - |
| 1777632311 | 1.67° C | 93% | 1016.3 hPa | 0 mm | - | 15 W/m² | - |
| 1777632008 | 1.67° C | 93% | 1016.4 hPa | 0 mm | - | 10 W/m² | - |
| 1777631706 | 1.67° C | 93% | 1016.4 hPa | 0 mm | - | 6 W/m² | - |
| 1777631403 | 1.67° C | 93% | 1016.3 hPa | 0 mm | - | 3 W/m² | - |
| 1777631100 | 1.67° C | 93% | 1016.4 hPa | 0 mm | - | 2 W/m² | - |
| 1777630797 | 1.67° C | 93% | 1016.6 hPa | 0 mm | - | 0 W/m² | - |
| 1777630493 | 1.67° C | 93% | 1016.5 hPa | 0 mm | - | 0 W/m² | - |
| 1777630190 | 1.67° C | 93% | 1016.1 hPa | 0 mm | - | 0 W/m² | - |
| 1777629888 | 1.11° C | 93% | 1016.3 hPa | 0 mm | - | 0 W/m² | - |
| 1777629585 | 1.67° C | 93% | 1016.4 hPa | 0 mm | - | 0 W/m² | - |
| 1777629281 | 1.11° C | 93% | 1016.3 hPa | 0 mm | - | 0 W/m² | - |
| 1777628977 | 1.11° C | 93% | 1016.4 hPa | 0 mm | - | 0 W/m² | - |
| 1777628674 | 1.11° C | 92% | 1016.3 hPa | 0 mm | - | 0 W/m² | - |
| 1777628370 | 1.67° C | 92% | 1016.3 hPa | 0 mm | - | 0 W/m² | - |
| 1777628066 | 1.11° C | 92% | 1015.9 hPa | 0 mm | - | 0 W/m² | - |
| 1777627766 | 1.11° C | 92% | 1016.1 hPa | 0 mm | - | 0 W/m² | - |
| 1777627466 | 1.67° C | 92% | 1016.1 hPa | 0 mm | - | 0 W/m² | - |
| 1777627162 | 1.67° C | 92% | 1016.1 hPa | 0 mm | - | 0 W/m² | - |
| 1777626859 | 1.67° C | 92% | 1016.3 hPa | 0 mm | - | 0 W/m² | - |
| 1777626555 | 1.67° C | 92% | 1016.1 hPa | 0 mm | - | 0 W/m² | - |
| 1777626250 | 1.67° C | 92% | 1016.2 hPa | 0 mm | - | 0 W/m² | - |
| 1777625948 | 1.67° C | 92% | 1016.3 hPa | 0 mm | - | 0 W/m² | - |
| 1777625644 | 1.67° C | 92% | 1016.6 hPa | 0 mm | - | 0 W/m² | - |
| 1777625339 | 1.67° C | 92% | 1016.3 hPa | 0 mm | - | 0 W/m² | - |
* Rain latest hour (hover to see other rain measurements)
** Current wind speed in m/s (hover to see current wind gust speed)